Hourly Data Report for January 08, 2017

All times are specified in Local Standard Time (LST). Add 1 hour to adjust for Daylight Saving Time where and when it is observed.

ST LEONARD CS
NEW BRUNSWICK

47°09'28.050" N
67°49'55.014" W
245.00 m
810I001
71019
WIY

Download Data

Hourly Data (January 2017)
Hourly Data Report for January 8, 2017
Temp Definition
°C
Dew Point Temp Definition
°C
Rel Hum Definition
%
Wind Dir Definition
10's deg

Wind Spd Definition
km/h
Visibility Definition
km
Stn Press Definition
kPa
Hmdx Definition


Wind Chill Definition


Weather Definition


TIME
00:00 -16.5 -18.4 85 3 7   98.92   -22 LegendNANA
01:00 -16.6 -18.5 85 1 5   98.90   -20 LegendNANA
02:00 -16.8 -18.8 85 36 9   98.70   -23 LegendNANA
03:00 -16.5 -18.1 87 35 8   98.69   -22 LegendNANA
04:00 -16.5 -18.0 88 33 12   98.62   -24 LegendNANA
05:00 -16.3 -17.8 88 33 12   98.51   -24 LegendNANA
06:00 -16.3 -17.8 88 32 19   98.45   -26 LegendNANA
07:00 -16.3 -17.7 89 32 14   98.44   -24 LegendNANA
08:00 -16.2 -17.6 89 32 18   98.44   -25 LegendNANA
09:00 -16.2 -17.8 88 32 18   98.47   -25 LegendNANA
10:00 -16.6 -18.4 86 31 19   98.48   -26 LegendNANA
11:00 -15.8 -18.2 82 32 27   98.49   -27 LegendNANA
12:00 -15.5 -18.1 80 31 23   98.46   -25 LegendNANA
13:00 -15.2 -17.9 80 30 21   98.44   -25 LegendNANA
14:00 -15.6 -18.4 79 30 28   98.48   -26 LegendNANA
15:00 -15.6 -18.7 77 30 23   98.55   -26 LegendNANA
16:00 -16.2 -19.0 79 30 28   98.64   -27 LegendNANA
17:00 -17.7 -20.7 77 30 24   98.73   -28 LegendNANA
18:00 -19.9 -22.4 81 30 12   98.78   -28 LegendNANA
19:00 -19.5 -21.9 81 30 15   98.83   -28 LegendNANA
20:00 -19.5 -22.6 77 30 23   98.92   -31 LegendNANA
21:00 -20.6 -23.6 77 29 18   99.00   -31 LegendNANA
22:00 -21.7 -24.4 79 29 17   99.06   -32 LegendNANA
23:00 -22.3 -24.5 82 29 13   99.12   -31 LegendNANA

Notes on Data Quality.

Legend

  • E = Estimated
  • M = Missing
  • NA = Not Available
  • ‡ = Partner data that is not subject to review by the National Climate Archives
Date modified: